Flag for Germany Weather past 2 weeks in Dreieich, Hesse, Germany

Now
55 °F

Partly sunny.


Feels Like: 55 °F
Forecast: 40 / 62 °F
Wind: 3 mph from East

Location: Frankfurt / M-Flughafen

Current Time: Apr 19, 2015 at 1:13:38 PM

Latest Report: Apr 19, 2015 at 12:00 PM


Visibility: 31 mi

Pressure: 30.18 "Hg

Humidity: 34%

Dew point: 27 °F

Location of DreieichLocation

Historic Weather in Dreieich — Graph

°F

Dreieich temperature yesterday

Maximum temperature yesterday: 57 °F (at 6:00 PM)
Minimum temperature yesterday: 42 °F (at 6:00 AM)
Average temperature yesterday: 49 °F

Past Weeks' High & Low Weather Summary

 TemperatureHumidityPressure
High77 °F (Apr 15, 6:00 PM)95% (Apr 10, 7:00 AM)30.66 "Hg (Apr 10, 7:00 AM)
Low28 °F (Apr 7, 7:00 AM)23% (Apr 15, 8:00 PM)29.84 "Hg (Apr 16, 7:00 PM)
Average51 °F58%30.26 "Hg
* Reported Apr 4 12:00 Noon — Apr 19 12:00 Noon, Dreieich, Weather by CustomWeather, © 2015

Note: Actual official high and low records may vary slightly from our data, if they occured in-between our weather recording intervals... More about our weather records

Advertising

Dreieich weather history for previous 24 hours

 ConditionsComfort  
Time TempWeatherWind HumidityBarometerVisibility
12:00 PM
Sun, Apr 19
55 °FPartly sunny.3 mph34%30.18 "Hg31 mi
10:00 AM48 °FPartly sunny.3 mph43%30.19 "Hg34 mi
9:00 AM45 °FPartly sunny.3 mph57%30.20 "Hg31 mi
8:00 AM41 °FScattered clouds.2 mph67%30.20 "Hg31 mi
7:00 AM38 °FPassing clouds.2 mph71%30.20 "Hg31 mi
6:00 AM39 °FPassing clouds.2 mph68%30.20 "Hg28 mi
4:00 AM39 °FPassing clouds.2 mph68%30.22 "Hg31 mi
3:00 AM38 °FPassing clouds.2 mph72%30.24 "Hg31 mi
2:00 AM39 °FPassing clouds.1 mph69%30.25 "Hg31 mi
1:00 AM40 °FClear.2 mph67%30.26 "Hg31 mi
12:00 AM44 °FClear.2 mph56%30.26 "Hg31 mi
11:00 PM
Sat, Apr 18
46 °FClear.2 mph52%30.25 "Hg34 mi
10:00 PM48 °FClear.2 mph48%30.25 "Hg37 mi
9:00 PM53 °FClear.2 mph36%30.24 "Hg43 mi
8:00 PM54 °FPassing clouds.2 mph34%30.24 "Hg47 mi
7:00 PM56 °FPassing clouds.5 mph31%30.24 "Hg47 mi
6:00 PM57 °FPassing clouds.6 mph30%30.24 "Hg43 mi
4:00 PM56 °FPassing clouds.6 mph32%30.27 "Hg43 mi
3:00 PM54 °FScattered clouds.7 mph35%30.28 "Hg43 mi
2:00 PM53 °FScattered clouds.7 mph38%30.29 "Hg40 mi
1:00 PM53 °FScattered clouds.7 mph43%30.30 "Hg37 mi
Weather by CustomWeather, © 2015

See weather overviewHow to use our weather pages